Location: Barnston
(51.8500°N, 0.4000°E)
Time: 17:03:10
(UTC+00:00)

Cosmos 2315 Rocket - Pass Details

Date: 26 September 2023
Orbit: 965 x 1002 km, 82.9° (Epoch: 07 December)

Event Time Altitude Azimuth Distance (km) Brightness Sun altitude
Rises 03:36:10 0° 349° (N) 3,724 7.3 -20.8°
Reaches altitude 10° 03:38:42 10° 350° (N) 2,775 6.6 -20.5°
Maximum altitude 03:45:06 85° 79° (E) 1,011 4.1 -19.6°
Drops below altitude 10° 03:51:30 10° 170° (S) 2,769 6.2 -18.7°
Sets 03:54:01 0° 171° (S) 3,715 6.9 -18.3°
